Location: Munkebjergskolens Observatorium
(55.3864°N, 10.3987°E)
Time: 10:07:44
(UTC+01:00)

BlueWalker 3 - Visible Passes

Search period start: 28 November 2022 00:00
Search period end: 08 December 2022 00:00
Orbit: 500 x 519 km, 53.2° (Epoch: 27 November)

Date Brightness Start Highest point End Pass type
(mag) Time Alt. Az. Time Alt. Az. Time Alt. Az.
28 Nov 3.9 16:36:17 10° S 16:39:02 18° SE 16:41:46 10° E visible
28 Nov 2.4 18:13:19 10° SW 18:17:05 47° SSE 18:17:47 42° SE visible
28 Nov 4.8 19:51:40 10° W 19:52:36 17° W 19:52:36 17° W visible
29 Nov 2.5 17:54:57 10° WSW 17:58:44 48° SSE 18:00:09 32° ESE visible
29 Nov 4.2 19:33:19 10° W 19:34:58 24° WSW 19:34:58 24° WSW visible
30 Nov 2.5 17:36:34 10° WSW 17:40:22 49° SSE 17:42:29 23° E visible
30 Nov 3.5 19:14:57 10° W 19:17:19 34° WSW 19:17:19 34° WSW visible
01 Dec 2.5 17:18:10 10° WSW 17:21:59 51° SSE 17:24:50 16° E visible
01 Dec 2.8 18:56:35 10° W 18:59:39 49° WSW 18:59:39 49° WSW visible
02 Dec 2.5 16:59:47 10° WSW 17:03:36 52° SSE 17:07:11 11° E visible
02 Dec 2.2 18:38:12 10° W 18:42:00 62° SSW 18:42:00 62° SSW visible
03 Dec 2.6 16:41:23 10° WSW 16:45:13 53° SSE 16:49:02 10° E visible
03 Dec 2.2 18:19:49 10° W 18:23:41 62° S 18:24:22 51° SE visible
03 Dec 5.0 19:58:30 10° W 19:59:12 14° W 19:59:12 14° W visible
04 Dec 2.3 18:01:25 10° W 18:05:18 61° S 18:06:46 34° ESE visible
04 Dec 4.5 19:40:07 10° W 19:41:36 19° WSW 19:41:36 19° WSW visible
05 Dec 2.3 17:43:02 10° W 17:46:55 60° S 17:49:12 22° ESE visible
05 Dec 4.0 19:21:44 10° W 19:24:02 25° WSW 19:24:02 25° WSW visible
06 Dec 2.4 17:24:37 10° W 17:28:30 60° S 17:31:43 14° ESE visible
06 Dec 3.6 19:03:21 10° W 19:06:33 29° SW 19:06:33 29° SW visible
07 Dec 2.5 17:06:13 10° W 17:10:06 59° S 17:13:56 10° ESE visible
07 Dec 3.6 18:44:57 10° W 18:48:21 28° SSW 18:49:08 26° S visible
